Terug naar catalogus

KUIPER-00253

ActiefCommunicatieLEO
NORAD 68584·PAYLOAD·🇺🇸 United States

Gelanceerd Apr 4, 2026 vanaf Cape Canaveral Space Force Station

Loading…

Volgende Passages (komende 24 uur)

TLE

VersSource: CelesTrak SupGP

Epoch: Sep 14, 2026, 18:58 UTC

1 68584C 26072M   26257.79040509 -.00000510  00000+0 -66737-4 0  2571
2 68584  51.9019 146.9624 0001056  92.6264 128.1566 14.79928247    14

Volg KUIPER-00253 in realtime met AllMySat

Download on the App Store